CZ-3C R/B, 43875

Orbit data source: Space-Track

CZ-3C R/B, 43875 is space debris in HEO originally from a launch on Mon, 24 Dec 2018 UTC launched from the Xichang Space Center, China (XSC). Debris objects in space refer to the collection of defunct objects orbiting the Earth. Examples of debris include non-operational satellites, rocket bodies, and fragments generated from explosions, collisions, or faulty payload assembly.

Loading next visibility...
Identifier
43875, 2018-110B
Orbit
HEO
Country
Flag of CNCN / PRC
Related business
Manufacturer
CALT
Mission
Spacecraft
Bus & Motor
CZ-3A STAGE 3, Unknown motor
Mass
~2,800 kg wet, ~2,800 kg dry
Launch date (UTC)
2018-12-24 (7 years ago)
Launch vehicle
Unknown
Launch site
Xichang Space Center, China (XSC)
Object type
Payload
Rocket body
Debris
Shape & HBR
Cyl + 1 Nozzle, 6.2 m
Radar Cross Section
32.704 m², Large (>1 m²)

Expand to show TLE details & history
Last TLE update: 1 day ago

TLE from 1 day ago
0 CZ-3C R/B
1 43875U 18110B   25260.45270081  .00018729  00000-0  15102-2 0  9998
2 43875  28.2970 354.3968 6635871 125.4650 315.5639  3.16237149 63821
Epoch: 2025-09-17T10:51Z
TLE epoch observation values (Epoch: 2025-09-17T10:51:53.349Z)
Latitude
0.00004°
Longitude
-165.20567°
Altitude
11,472.79 km
Speed
4.932 km/s
True Right ascension
23h 37m 34s
True Declination
0° 00' 00"
Sunlit
Object was in full shadow at epoch
Visualization orbit readout
Latitude
Unknown
Longitude
Unknown
Altitude
Unknown
Speed
Unknown
Apparent Right ascension
Unknown
Apparent Declination
Unknown
Sunlit
N/A
Visualization observer readout
Local Sidereal Time
08:22:16
Azimuth
Unknown
Elevation
Unknown
Doppler factor
Unknown
Orbital elements
Apogee altitude
26,244.409 km
Perigee altitude
218.84 km
Semi-major axis
19,609.761 km
Eccentricity
0.66359
Inclination
28.297°
RAAN
354.3968°
Arg. of periapsis
125.465°
True anomaly
234.62717°
Mean anomaly
315.5639°
Eccentric anomaly
277.9044°
Mean motion
0.79038 °/min
Orbital period
455.48 mins
BSTAR
0.0015102
Loading maneuver chart data...
Computing Atmospheric mass density...
Loading historical data...
Loading historical data...
Loading historical data...
Loading historical data...
Loading historical data...
Loading historical data...
Loading historical data...
Other satellites on launch #110 in the year 2018 (2018-12-24 UTC)

Documentation

Showing up to 5 results
|